"Pseudo-MPEC" for ZTAA8B3

Created 2018 Oct 22 17:18:07 UT using Find_Orb

Click here for an explanation of pseudo-MPECs

 
 Astrometry: 
     ZTAA8B3  C2018 10 05.29407 00 33 21.57 +12 11 30.1          20.0 GVNEOCPG96
     ZTAA8B3  C2018 10 05.30535 00 33 53.65 +12 05 26.7          19.8 GVNEOCPG96
     ZTAA8B3  C2018 10 05.31097 00 34 09.45 +12 02 27.1          20.1 GVNEOCPG96
     ZTAA8B3  C2018 10 05.44064 00 40 41.64 +10 47 54.1          20.3 GVNEOCPG96
     ZTAA8B3  C2018 10 05.44082 00 40 42.19 +10 47 47.4          20.1 GVNEOCPG96
     ZTAA8B3  C2018 10 05.44099 00 40 42.75 +10 47 41.1          19.9 GVNEOCPG96
     ZTAA8B3  C2018 10 05.44117 00 40 43.30 +10 47 35.1          20.2 GVNEOCPG96
     ZTAA8B3  C2018 10 05.44550 00 40 57.30 +10 44 58.7          19.9 GVNEOCPI52
     ZTAA8B3  C2018 10 05.44652 00 41 00.62 +10 44 21.0          19.4 GVNEOCPI52
     ZTAA8B3  C2018 10 05.44858 00 41 07.32 +10 43 05.5          20.0 GVNEOCPI52

Station data:
(G96) Mt. Lemmon Survey  (N32.442754 W110.788720)  US/Arizona.  Observers B.
   M. Africano, E. J. Christensen, D. C. Fuls, A. R. Gibbs, A. D. Grauer, J.
   A. Johnson, R. A. Kowalski, S. M. Larson, G. J. Leonard, R. L. Seaman, F.
   C. Shelly. 1.5-m reflector + 10K CCD.
(I52) Steward Observatory, Mt. Lemmon Station  (N32.442547 W110.788920)
   US/Arizona.  Observers B. M. Africano, E. J. Christensen, D. C. Fuls, A.
   R. Gibbs, A. D. Grauer, J. A. Johnson, R. A. Kowalski, S. M. Larson, G. J.
   Leonard, R. L. Seaman, F. C. Shelly. 1.0-m reflector + CCD.

Orbital elements:  ZTAA8B3
   Perihelion 2018 Nov 13.576980 +/- 1.05 TT = 13:50:51 (JD 2458436.076980)
Epoch 2018 Oct  5.0 TT = JDT 2458396.5   Earth MOID: 0.0047   AutoNEOCP
M 331.42809 +/- 1.0                 (J2000 ecliptic)
n   0.72193243 +/- 0.0374           Peri.  223.67763 +/- 2.0
a   1.23066074 +/- 0.0425           Node   192.26873 +/- 0.0027
e   0.2234248 +/- 0.0348            Incl.    6.62620 +/- 0.8
P   1.37/498.65d           H 30.4   G  0.15   U 10.5  
q 0.95570058 +/- 0.00983    Q 1.50562089 +/- 0.0928
From 10 observations 2018 Oct. 5 (3.7 hr); mean residual 0".90
Residuals in arcseconds: 
181005 G96  .17+  .62-    181005 G96  .48+  .91-    181005 I52  .36-  .53+    
181005 G96  1.5+  .94-    181005 G96  .64+  1.0-    181005 I52  .55-  .37+    
181005 G96  1.8-  1.8+    181005 G96  .17+  .48-    
181005 G96  .95+  .76-    181005 I52  .40-  .97+    

Ephemerides (geocentric):
Date (UTC) HH   RA              Dec         delta   r     elong  mag " sig PA
---- -- -- --  -------------   -----------  ------ ------ -----  --- ---- ---
2018 10 22 17  09 38 31.004   -32 21 36.85  .05044 .97148  60.8 28.5 5728  84
2018 10 22 18  09 38 36.559   -32 21 17.25  .05057 .97141  60.8 28.5 5725  84
2018 10 22 19  09 38 42.095   -32 20 57.72  .05070 .97135  60.8 28.5 5722  84
2018 10 22 20  09 38 47.613   -32 20 38.25  .05083 .97128  60.8 28.5 5719  84
2018 10 22 21  09 38 53.113   -32 20 18.86  .05097 .97121  60.8 28.5 5717  84
2018 10 22 22  09 38 58.596   -32 19 59.53  .05110 .97115  60.8 28.5 5714  84
2018 10 22 23  09 39 04.061   -32 19 40.28  .05123 .97108  60.8 28.5 5711  84
2018 10 23 00  09 39 09.508   -32 19 21.09  .05136 .97102  60.8 28.5 5709  84
2018 10 23 01  09 39 14.939   -32 19 01.97  .05150 .97095  60.8 28.5 5706  84
2018 10 23 02  09 39 20.352   -32 18 42.91  .05163 .97088  60.8 28.5 5703  84
2018 10 23 03  09 39 25.748   -32 18 23.92  .05176 .97082  60.8 28.5 5701  84
2018 10 23 04  09 39 31.128   -32 18 05.00  .05189 .97075  60.8 28.5 5698  84
2018 10 23 05  09 39 36.492   -32 17 46.15  .05203 .97069  60.8 28.5 5696  84
2018 10 23 06  09 39 41.838   -32 17 27.36  .05216 .97062  60.9 28.5 5693  84
2018 10 23 07  09 39 47.169   -32 17 08.63  .05229 .97056  60.9 28.5 5690  84
2018 10 23 08  09 39 52.484   -32 16 49.97  .05242 .97049  60.9 28.5 5688  84
2018 10 23 09  09 39 57.783   -32 16 31.38  .05256 .97043  60.9 28.5 5685  84
2018 10 23 10  09 40 03.066   -32 16 12.85  .05269 .97036  60.9 28.5 5683  84
2018 10 23 11  09 40 08.333   -32 15 54.38  .05282 .97030  60.9 28.5 5680  83
2018 10 23 12  09 40 13.585   -32 15 35.98  .05295 .97023  60.9 28.5 5678  83
2018 10 23 13  09 40 18.822   -32 15 17.64  .05308 .97017  60.9 28.6 5675  83
2018 10 23 14  09 40 24.043   -32 14 59.36  .05322 .97011  60.9 28.6 5673  83
2018 10 23 15  09 40 29.250   -32 14 41.14  .05335 .97004  60.9 28.6 5671  83
2018 10 23 16  09 40 34.441   -32 14 22.99  .05348 .96998  60.9 28.6 5668  83
2018 10 23 17  09 40 39.618   -32 14 04.90  .05361 .96991  60.9 28.6 5666  83
2018 10 23 18  09 40 44.781   -32 13 46.87  .05375 .96985  60.9 28.6 5663  83
2018 10 23 19  09 40 49.929   -32 13 28.90  .05388 .96979  60.9 28.6 5661  83
2018 10 23 20  09 40 55.062   -32 13 11.00  .05401 .96972  61.0 28.6 5659  83
2018 10 23 21  09 41 00.182   -32 12 53.15  .05414 .96966  61.0 28.6 5656  83
2018 10 23 22  09 41 05.287   -32 12 35.37  .05428 .96959  61.0 28.6 5654  83
2018 10 23 23  09 41 10.379   -32 12 17.64  .05441 .96953  61.0 28.6 5652  83
2018 10 24 00  09 41 15.457   -32 11 59.98  .05454 .96947  61.0 28.6 5649  83
2018 10 24 01  09 41 20.521   -32 11 42.37  .05467 .96941  61.0 28.6 5647  83
2018 10 24 02  09 41 25.571   -32 11 24.82  .05481 .96934  61.0 28.6 5645  83
2018 10 24 03  09 41 30.609   -32 11 07.34  .05494 .96928  61.0 28.6 5643  83
2018 10 24 04  09 41 35.633   -32 10 49.91  .05507 .96922  61.0 28.6 5640  83
2018 10 24 05  09 41 40.644   -32 10 32.54  .05520 .96915  61.0 28.6 5638  83
2018 10 24 06  09 41 45.642   -32 10 15.23  .05533 .96909  61.0 28.6 5636  83
2018 10 24 07  09 41 50.627   -32 09 57.97  .05547 .96903  61.0 28.6 5634  83
2018 10 24 08  09 41 55.599   -32 09 40.78  .05560 .96897  61.0 28.6 5631  83
2018 10 24 09  09 42 00.559   -32 09 23.64  .05573 .96890  61.1 28.6 5629  83
2018 10 24 10  09 42 05.507   -32 09 06.56  .05586 .96884  61.1 28.6 5627  83
2018 10 24 11  09 42 10.441   -32 08 49.53  .05600 .96878  61.1 28.6 5625  83
2018 10 24 12  09 42 15.364   -32 08 32.56  .05613 .96872  61.1 28.6 5623  83
2018 10 24 13  09 42 20.275   -32 08 15.65  .05626 .96866  61.1 28.6 5621  83
2018 10 24 14  09 42 25.173   -32 07 58.79  .05639 .96859  61.1 28.7 5619  83
2018 10 24 15  09 42 30.060   -32 07 41.99  .05652 .96853  61.1 28.7 5617  83
2018 10 24 16  09 42 34.934   -32 07 25.25  .05666 .96847  61.1 28.7 5615  83